Location: Baili�vre
(50.0696°N, 4.2409°E)
Time: 06:55:34
(UTC+00:00)

Cosmos 2221 Rocket - Pass Details

Date: 08 August 2020
Orbit: 621 x 647 km, 82.5° (Epoch: 27 September)

Event Time Altitude Azimuth Distance (km) Brightness Sun altitude
Rises 22:39:14 0° 347° (NNW) 2,929 8.5 -22.4°
Reaches altitude 10° 22:41:29 10° 345° (NNW) 2,021 7.3 -22.5°
Maximum altitude 22:45:55 67° 263° (W) 693 3.7 -22.7°
Enters shadow 22:46:28 60° 222° (SW) 731 3.7 -22.7°
